Weather History for Marathon, FL

Change the Weather History Date:

Wednesday, March 13, 2013

  Actual Average Record
Temperature  
Mean Temperature 70 °F 74 °F  
Max Temperature 75 °F 79 °F 87 °F (2003)
Min Temperature 64 °F 68 °F 57 °F (1998)
Degree Days  
Heating Degree Days 0 0  
Month to date heating degree days 19 0  
Since 1 July heating degree days 32 75  
Cooling Degree Days 5 9  
Month to date cooling degree days 47 107  
Year to date cooling degree days 642 489  
Growing Degree Days 18 (Base 50)    
Moisture  
Dew Point 56 °F    
Average Humidity 60    
Maximum Humidity 78    
Minimum Humidity 41    
Precipitation  
Precipitation T in 0.08 in 0.27 in (2014)
Month to date precipitation 0.15 0.99  
Year to date precipitation 2.53 4.81  
Snow  
Snow 0.00 in - - ()
Month to date snowfall 0.0  
Since 1 July snowfall 0.0  
Snow Depth 0.00 in    
Sea Level Pressure  
Sea Level Pressure 30.06 in    
Wind  
Wind Speed 10 mph (NNW)    
Max Wind Speed 16 mph    
Max Gust Speed 24 mph    
Visibility 10 miles    
Events      
T = Trace of Precipitation, MM = Missing Value Source: NWS Daily Summary

Daily Weather History Graph

Daily Weather History Graph

Search for Another Location

Airport:

Trip Planner

Search our weather history database for the weather conditions in past years. The results will help you decide how hot, cold, wet, or windy it might be!

Date:

Astronomy

Mar. 13, 2013 Rise Set
Actual Time 7:35 AM EDT 7:32 PM EDT
Civil Twilight 7:12 AM EDT 7:55 PM EDT
Nautical Twilight 6:45 AM EDT 8:21 PM EDT
Astronomical Twilight 6:19 AM EDT 8:48 PM EDT
Moon 8:29 AM EDT (3/13) 9:27 PM EDT (3/13)
Length of Visible Light 12h 42m
Length of Day
11h 57m
Waxing Crescent, 4% of the Moon is Illuminated
Mar 13
Waxing Crescent
Mar 19
First Quarter
Mar 27
Full
Apr 3
Last Quarter
Apr 10
New

Hourly Weather History & Observations

Time (EDT) Temp. Dew Point Humidity Pressure Visibility Wind Dir Wind Speed Gust Speed Precip Events Conditions
12:53 AM 69.1 °F 63.0 °F 81% 30.04 in 10.0 mi North 6.9 mph - N/A   Overcast
1:53 AM 69.1 °F 63.0 °F 81% 30.03 in 10.0 mi NNW 6.9 mph - N/A   Overcast
2:21 AM 69.8 °F 62.6 °F 78% 30.02 in 10.0 mi NNW 6.9 mph - N/A   Overcast
2:53 AM 70.0 °F 63.0 °F 78% 30.01 in 10.0 mi Variable 4.6 mph - N/A   Overcast
3:20 AM 69.8 °F 62.6 °F 78% 30.01 in 10.0 mi NNW 10.4 mph - N/A   Overcast
3:53 AM 68.0 °F 61.0 °F 78% 30.01 in 10.0 mi NNW 8.1 mph - N/A   Overcast
4:29 AM 68.0 °F 59.0 °F 73% 30.01 in 10.0 mi NNW 8.1 mph - N/A   Overcast
4:53 AM 66.9 °F 57.0 °F 70% 30.01 in 10.0 mi Variable 6.9 mph - N/A   Overcast
5:53 AM 66.9 °F 54.0 °F 63% 30.01 in 10.0 mi NNW 6.9 mph - N/A   Overcast
6:53 AM 64.9 °F 55.0 °F 70% 30.04 in 10.0 mi North 11.5 mph 21.9 mph 0.00 in   Overcast
7:23 AM 64.4 °F 48.2 °F 56% 30.05 in 10.0 mi North 10.4 mph 19.6 mph N/A   Overcast
7:53 AM 64.0 °F 52.0 °F 65% 30.06 in 10.0 mi North 12.7 mph 18.4 mph N/A   Scattered Clouds
8:53 AM 64.0 °F 55.0 °F 73% 30.08 in 10.0 mi North 13.8 mph 23.0 mph N/A   Scattered Clouds
9:53 AM 66.9 °F 53.1 °F 61% 30.10 in 10.0 mi North 13.8 mph 24.2 mph N/A   Clear
10:53 AM 69.1 °F 50.0 °F 51% 30.11 in 10.0 mi North 13.8 mph 23.0 mph N/A   Clear
11:53 AM 73.0 °F 50.0 °F 44% 30.13 in 10.0 mi North 10.4 mph 18.4 mph N/A   Clear
12:53 PM 73.0 °F 50.0 °F 44% 30.12 in 10.0 mi North 9.2 mph 19.6 mph N/A   Clear
1:53 PM 72.0 °F 50.0 °F 46% 30.10 in 10.0 mi NNW 10.4 mph 17.3 mph N/A   Clear
2:53 PM 73.9 °F 51.1 °F 45% 30.07 in 10.0 mi NNW 9.2 mph 18.4 mph N/A   Clear
3:53 PM 72.0 °F 52.0 °F 49% 30.06 in 10.0 mi Variable 6.9 mph 16.1 mph N/A   Clear
4:53 PM 72.0 °F 53.1 °F 51% 30.05 in 10.0 mi NW 11.5 mph 19.6 mph N/A   Clear
5:53 PM 72.0 °F 55.0 °F 55% 30.06 in 10.0 mi NNW 9.2 mph - N/A   Clear
6:53 PM 73.0 °F 48.9 °F 42% 30.06 in 10.0 mi North 11.5 mph 19.6 mph N/A   Clear
7:53 PM 70.0 °F 55.9 °F 61% 30.08 in 10.0 mi NNW 6.9 mph - N/A   Clear
8:53 PM 70.0 °F 60.1 °F 71% 30.10 in 10.0 mi NNW 8.1 mph - N/A   Clear
9:53 PM 69.1 °F 57.0 °F 65% 30.11 in 10.0 mi NNW 10.4 mph 17.3 mph N/A   Clear
10:53 PM 68.0 °F 57.9 °F 70% 30.13 in 10.0 mi NNW 6.9 mph - N/A   Clear
11:53 PM 68.0 °F 57.0 °F 68% 30.14 in 10.0 mi NNW 10.4 mph 18.4 mph N/A   Clear